Time,TemperatureF,DewpointF,PressureIn,WindDirection,WindDirectionDegrees,WindSpeedMPH,WindSpeedGustMPH,Humidity,HourlyPrecipIn,Conditions,Clouds,dailyrainin,SoftwareType,DateUTC
2013-01-24 00:11:00,10.9,0.0,30.09,SSW,204,4.0,10.0,61,0.00,,,0.00,weatherlink.com 1.10,2013-01-24 05:11:00,
2013-01-24 00:26:00,10.6,-1.0,30.09,SW,219,5.0,8.0,60,0.00,,,0.00,weatherlink.com 1.10,2013-01-24 05:26:00,
2013-01-24 00:41:00,9.9,-1.0,30.09,SW,228,1.0,7.0,62,0.00,,,0.00,weatherlink.com 1.10,2013-01-24 05:41:00,
2013-01-24 00:56:00,9.4,-1.0,30.09,WSW,242,2.0,8.0,62,0.00,,,0.00,weatherlink.com 1.10,2013-01-24 05:56:00,
2013-01-24 01:12:00,9.5,-2.0,30.08,SW,232,2.0,9.0,61,0.00,,,0.00,weatherlink.com 1.10,2013-01-24 06:12:00,
2013-01-24 01:27:00,8.8,-3.0,30.09,SSW,209,4.0,6.0,60,0.00,,,0.00,weatherlink.com 1.10,2013-01-24 06:27:00,
2013-01-24 01:42:00,8.4,-3.0,30.09,WSW,242,4.0,7.0,61,0.00,,,0.00,weatherlink.com 1.10,2013-01-24 06:42:00,
2013-01-24 01:57:00,8.4,-2.0,30.09,SSW,212,6.0,7.0,64,0.00,,,0.00,weatherlink.com 1.10,2013-01-24 06:57:00,
2013-01-24 02:12:00,8.2,-2.0,30.09,SSW,207,5.0,7.0,63,0.00,,,0.00,weatherlink.com 1.10,2013-01-24 07:12:00,
2013-01-24 02:27:00,8.1,-2.0,30.09,WNW,290,5.0,7.0,63,0.00,,,0.00,weatherlink.com 1.10,2013-01-24 07:27:00,
2013-01-24 02:42:00,8.1,-2.0,30.09,WSW,238,3.0,6.0,65,0.00,,,0.00,weatherlink.com 1.10,2013-01-24 07:42:00,
2013-01-24 02:57:00,8.0,-2.0,30.08,West,259,2.0,7.0,64,0.00,,,0.00,weatherlink.com 1.10,2013-01-24 07:57:00,
2013-01-24 03:12:00,8.0,-2.0,30.08,SW,224,5.0,9.0,64,0.00,,,0.00,weatherlink.com 1.10,2013-01-24 08:12:00,
2013-01-24 03:27:00,8.4,-2.0,30.07,WSW,249,2.0,7.0,64,0.00,,,0.00,weatherlink.com 1.10,2013-01-24 08:27:00,
2013-01-24 03:42:00,8.7,-1.0,30.07,SW,222,3.0,7.0,65,0.00,,,0.00,weatherlink.com 1.10,2013-01-24 08:42:00,
2013-01-24 03:57:00,8.8,-1.0,30.07,West,259,1.0,9.0,66,0.00,,,0.00,weatherlink.com 1.10,2013-01-24 08:57:00,
2013-01-24 04:12:00,8.8,0.0,30.06,WSW,245,1.0,6.0,68,0.00,,,0.00,weatherlink.com 1.10,2013-01-24 09:12:00,
2013-01-24 04:27:00,9.0,0.0,30.06,SSW,207,2.0,8.0,68,0.00,,,0.00,weatherlink.com 1.10,2013-01-24 09:27:00,
2013-01-24 04:42:00,9.4,0.0,30.06,NNW,341,0.0,12.0,65,0.00,,,0.00,weatherlink.com 1.10,2013-01-24 09:42:00,
2013-01-24 05:13:00,9.5,0.0,30.06,WNW,291,2.0,7.0,66,0.00,,,0.00,weatherlink.com 1.10,2013-01-24 10:13:00,
2013-01-24 05:28:00,9.5,0.0,30.07,SW,226,3.0,8.0,66,0.00,,,0.00,weatherlink.com 1.10,2013-01-24 10:28:00,
2013-01-24 05:43:00,9.4,0.0,30.07,SW,221,2.0,6.0,66,0.00,,,0.00,weatherlink.com 1.10,2013-01-24 10:43:00,
2013-01-24 05:58:00,9.1,1.0,30.07,SW,229,3.0,7.0,68,0.00,,,0.00,weatherlink.com 1.10,2013-01-24 10:58:00,
2013-01-24 06:13:00,8.8,1.0,30.07,SSW,208,5.0,6.0,69,0.00,,,0.00,weatherlink.com 1.10,2013-01-24 11:13:00,
2013-01-24 06:28:00,8.5,1.0,30.07,SW,226,3.0,6.0,70,0.00,,,0.00,weatherlink.com 1.10,2013-01-24 11:28:00,
2013-01-24 06:43:00,8.3,1.0,30.07,SW,226,3.0,7.0,71,0.00,,,0.00,weatherlink.com 1.10,2013-01-24 11:43:00,
2013-01-24 06:58:00,8.5,1.0,30.08,SSW,208,1.0,6.0,70,0.00,,,0.00,weatherlink.com 1.10,2013-01-24 11:58:00,
2013-01-24 07:14:00,8.9,1.0,30.08,SW,229,1.0,7.0,70,0.00,,,0.00,weatherlink.com 1.10,2013-01-24 12:14:00,
2013-01-24 07:29:00,9.3,1.0,30.08,SW,221,4.0,10.0,70,0.00,,,0.00,weatherlink.com 1.10,2013-01-24 12:29:00,
2013-01-24 07:44:00,9.7,1.0,30.08,SW,219,5.0,15.0,69,0.00,,,0.00,weatherlink.com 1.10,2013-01-24 12:44:00,
2013-01-24 07:58:00,10.3,2.0,30.08,WSW,253,0.0,10.0,69,0.00,,,0.00,weatherlink.com 1.10,2013-01-24 12:58:00,
2013-01-24 08:14:00,11.5,3.0,30.07,WSW,257,7.0,8.0,68,0.00,,,0.00,weatherlink.com 1.10,2013-01-24 13:14:00,
2013-01-24 08:29:00,12.2,3.0,30.07,SW,215,3.0,11.0,67,0.00,,,0.00,weatherlink.com 1.10,2013-01-24 13:29:00,
2013-01-24 08:44:00,12.9,3.0,30.07,West,278,7.0,12.0,66,0.00,,,0.00,weatherlink.com 1.10,2013-01-24 13:44:00,
2013-01-24 08:59:00,12.9,4.0,30.06,WSW,242,6.0,12.0,67,0.00,,,0.00,weatherlink.com 1.10,2013-01-24 13:59:00,
2013-01-24 09:14:00,13.2,4.0,30.06,WSW,250,6.0,14.0,68,0.00,,,0.00,weatherlink.com 1.10,2013-01-24 14:14:00,
2013-01-24 09:29:00,13.3,5.0,30.06,North,1,2.0,13.0,70,0.00,,,0.00,weatherlink.com 1.10,2013-01-24 14:29:00,
2013-01-24 09:44:00,13.3,5.0,30.06,WNW,290,3.0,11.0,70,0.00,,,0.00,weatherlink.com 1.10,2013-01-24 14:44:00,
2013-01-24 09:59:00,14.2,6.0,30.05,WSW,248,10.0,10.0,71,0.00,,,0.00,weatherlink.com 1.10,2013-01-24 14:59:00,
2013-01-24 10:14:00,14.2,7.0,30.05,ENE,67,10.0,13.0,72,0.00,,,0.00,weatherlink.com 1.10,2013-01-24 15:14:00,
2013-01-24 10:30:00,15.1,8.0,30.05,SSW,195,3.0,12.0,72,0.00,,,0.00,weatherlink.com 1.10,2013-01-24 15:30:00,
2013-01-24 10:44:00,15.8,7.0,30.04,SW,226,1.0,16.0,69,0.00,,,0.00,weatherlink.com 1.10,2013-01-24 15:44:00,
2013-01-24 10:59:00,16.6,8.0,30.03,SW,235,5.0,14.0,69,0.00,,,0.00,weatherlink.com 1.10,2013-01-24 15:59:00,
2013-01-24 11:14:00,16.8,8.0,30.03,SW,218,6.0,16.0,67,0.00,,,0.00,weatherlink.com 1.10,2013-01-24 16:14:00,
2013-01-24 11:30:00,17.2,8.0,30.02,NW,316,2.0,17.0,67,0.00,,,0.00,weatherlink.com 1.10,2013-01-24 16:30:00,
2013-01-24 11:45:00,17.5,8.0,30.01,SW,225,7.0,16.0,66,0.00,,,0.00,weatherlink.com 1.10,2013-01-24 16:45:00,
2013-01-24 12:00:00,17.9,7.0,30.01,NW,305,4.0,21.0,63,0.00,,,0.00,weatherlink.com 1.10,2013-01-24 17:00:00,
2013-01-24 12:15:00,17.8,7.0,30.01,SW,232,6.0,14.0,62,0.00,,,0.00,weatherlink.com 1.10,2013-01-24 17:15:00,
2013-01-24 12:30:00,18.6,6.0,30.00,SW,229,4.0,15.0,58,0.00,,,0.00,weatherlink.com 1.10,2013-01-24 17:30:00,
2013-01-24 12:45:00,18.7,6.0,30.00,WSW,243,7.0,13.0,57,0.00,,,0.00,weatherlink.com 1.10,2013-01-24 17:45:00,
2013-01-24 13:00:00,18.4,5.0,29.99,WSW,250,8.0,15.0,56,0.00,,,0.00,weatherlink.com 1.10,2013-01-24 18:00:00,
2013-01-24 13:15:00,18.4,4.0,30.00,ESE,115,3.0,18.0,54,0.00,,,0.00,weatherlink.com 1.10,2013-01-24 18:15:00,
2013-01-24 13:30:00,18.8,5.0,29.99,WNW,284,9.0,16.0,54,0.00,,,0.00,weatherlink.com 1.10,2013-01-24 18:30:00,
2013-01-24 13:45:00,19.1,5.0,29.99,WSW,257,10.0,14.0,55,0.00,,,0.00,weatherlink.com 1.10,2013-01-24 18:45:00,
2013-01-24 14:00:00,19.7,5.0,30.00,NNW,330,3.0,16.0,52,0.00,,,0.00,weatherlink.com 1.10,2013-01-24 19:00:00,
2013-01-24 14:16:00,20.2,4.0,30.00,NNW,336,5.0,20.0,50,0.00,,,0.00,weatherlink.com 1.10,2013-01-24 19:16:00,
2013-01-24 14:30:00,20.6,4.0,30.00,WNW,292,3.0,15.0,49,0.00,,,0.00,weatherlink.com 1.10,2013-01-24 19:30:00,
2013-01-24 14:45:00,20.5,3.0,30.00,WSW,249,4.0,18.0,46,0.00,,,0.00,weatherlink.com 1.10,2013-01-24 19:45:00,
2013-01-24 15:01:00,21.0,4.0,30.00,West,276,10.0,23.0,47,0.00,,,0.00,weatherlink.com 1.10,2013-01-24 20:01:00,
2013-01-24 15:16:00,21.1,2.0,30.00,SW,232,7.0,14.0,44,0.00,,,0.00,weatherlink.com 1.10,2013-01-24 20:16:00,
2013-01-24 15:31:00,20.8,1.0,30.00,WNW,293,9.0,19.0,43,0.00,,,0.00,weatherlink.com 1.10,2013-01-24 20:31:00,
2013-01-24 16:01:00,19.8,2.0,30.01,East,84,1.0,18.0,46,0.00,,,0.00,weatherlink.com 1.10,2013-01-24 21:01:00,
2013-01-24 16:16:00,19.6,1.0,30.03,WSW,245,3.0,13.0,45,0.00,,,0.00,weatherlink.com 1.10,2013-01-24 21:16:00,
2013-01-24 16:31:00,19.5,0.0,30.03,West,278,4.0,9.0,43,0.00,,,0.00,weatherlink.com 1.10,2013-01-24 21:31:00,
2013-01-24 16:46:00,19.0,0.0,30.04,WSW,248,5.0,10.0,44,0.00,,,0.00,weatherlink.com 1.10,2013-01-24 21:46:00,
2013-01-24 17:01:00,19.0,1.0,30.04,SSE,159,3.0,11.0,45,0.00,,,0.00,weatherlink.com 1.10,2013-01-24 22:01:00,
2013-01-24 17:16:00,19.3,0.0,30.05,NE,51,4.0,14.0,43,0.00,,,0.00,weatherlink.com 1.10,2013-01-24 22:16:00,
2013-01-24 17:31:00,19.7,-1.0,30.05,SW,225,5.0,17.0,40,0.00,,,0.00,weatherlink.com 1.10,2013-01-24 22:31:00,
2013-01-24 17:47:00,19.4,-1.0,30.06,SSW,194,5.0,16.0,41,0.00,,,0.00,weatherlink.com 1.10,2013-01-24 22:47:00,
2013-01-24 18:01:00,19.0,-1.0,30.06,West,266,15.0,15.0,42,0.00,,,0.00,weatherlink.com 1.10,2013-01-24 23:01:00,
2013-01-24 18:17:00,19.3,-1.0,30.06,SSW,211,7.0,17.0,41,0.00,,,0.00,weatherlink.com 1.10,2013-01-24 23:17:00,
2013-01-24 18:32:00,19.7,-3.0,30.06,WNW,291,13.0,22.0,37,0.00,,,0.00,weatherlink.com 1.10,2013-01-24 23:32:00,
2013-01-24 18:47:00,19.7,-1.0,30.07,SSW,210,11.0,17.0,40,0.00,,,0.00,weatherlink.com 1.10,2013-01-24 23:47:00,
2013-01-24 19:02:00,18.2,-1.0,30.07,SW,231,6.0,10.0,44,0.00,,,0.00,weatherlink.com 1.10,2013-01-25 00:02:00,
2013-01-24 19:17:00,18.1,-1.0,30.07,SSE,156,2.0,15.0,44,0.00,,,0.00,weatherlink.com 1.10,2013-01-25 00:17:00,
2013-01-24 19:32:00,18.4,-1.0,30.07,SSW,212,6.0,18.0,42,0.00,,,0.00,weatherlink.com 1.10,2013-01-25 00:32:00,
2013-01-24 19:47:00,18.2,-1.0,30.08,SE,142,1.0,15.0,44,0.00,,,0.00,weatherlink.com 1.10,2013-01-25 00:47:00,
2013-01-24 20:02:00,18.3,-1.0,30.08,WSW,238,8.0,16.0,43,0.00,,,0.00,weatherlink.com 1.10,2013-01-25 01:02:00,
2013-01-24 20:17:00,18.1,-2.0,30.09,West,263,8.0,13.0,42,0.00,,,0.00,weatherlink.com 1.10,2013-01-25 01:17:00,
2013-01-24 20:32:00,17.9,-1.0,30.09,SW,228,4.0,20.0,43,0.00,,,0.00,weatherlink.com 1.10,2013-01-25 01:32:00,
2013-01-24 20:47:00,17.8,-1.0,30.09,SSW,197,4.0,14.0,44,0.00,,,0.00,weatherlink.com 1.10,2013-01-25 01:47:00,
2013-01-24 21:02:00,17.7,-2.0,30.10,West,259,5.0,14.0,42,0.00,,,0.00,weatherlink.com 1.10,2013-01-25 02:02:00,
2013-01-24 21:17:00,17.4,-1.0,30.11,West,269,5.0,14.0,44,0.00,,,0.00,weatherlink.com 1.10,2013-01-25 02:17:00,
2013-01-24 21:33:00,17.1,-2.0,30.11,SW,223,6.0,15.0,44,0.00,,,0.00,weatherlink.com 1.10,2013-01-25 02:33:00,
2013-01-24 21:48:00,16.8,-2.0,30.11,WSW,255,8.0,13.0,44,0.00,,,0.00,weatherlink.com 1.10,2013-01-25 02:48:00,
2013-01-24 22:03:00,16.6,-1.0,30.12,SW,228,4.0,12.0,45,0.00,,,0.00,weatherlink.com 1.10,2013-01-25 03:03:00,
2013-01-24 22:18:00,16.5,-1.0,30.13,SW,214,8.0,10.0,46,0.00,,,0.00,weatherlink.com 1.10,2013-01-25 03:18:00,
2013-01-24 22:33:00,16.4,-2.0,30.12,WSW,243,11.0,18.0,45,0.00,,,0.00,weatherlink.com 1.10,2013-01-25 03:33:00,
2013-01-24 22:48:00,16.1,-1.0,30.13,West,264,3.0,13.0,46,0.00,,,0.00,weatherlink.com 1.10,2013-01-25 03:48:00,
2013-01-24 23:03:00,16.0,-1.0,30.13,West,273,7.0,14.0,48,0.00,,,0.00,weatherlink.com 1.10,2013-01-25 04:03:00,
2013-01-24 23:18:00,15.7,-1.0,30.14,West,259,2.0,12.0,49,0.00,,,0.00,weatherlink.com 1.10,2013-01-25 04:18:00,
2013-01-24 23:33:00,15.6,0.0,30.14,WSW,250,8.0,14.0,50,0.00,,,0.00,weatherlink.com 1.10,2013-01-25 04:33:00,
2013-01-24 23:49:00,15.4,0.0,30.14,West,266,8.0,16.0,51,0.00,,,0.00,weatherlink.com 1.10,2013-01-25 04:49:00,